Location: Cowley
(49.5667°N, 114.0667°W)
Time: 09:51:17
(UTC+00:00)

Envisat - Pass Details

Date: 03 December 2021
Orbit: 764 x 766 km, 98.2° (Epoch: 23 January)

Event Time Altitude Azimuth Distance (km) Brightness Sun altitude
Rises 11:09:56 0° 30° (NNE) 3,245 6.7 -38.6°
Reaches altitude 10° 11:13:31 10° 56° (NE) 2,312 6.1 -38.0°
Maximum altitude 11:16:01 14° 86° (E) 2,064 5.9 -37.6°
Drops below altitude 10° 11:18:31 10° 116° (ESE) 2,303 6.0 -37.2°
Sets 11:22:03 0° 142° (SE) 3,222 6.6 -36.6°
